Location: Monfort
(47.1967°N, 0.2115°W)
Time: 11:53:05
(UTC+00:00)

Okean-O - Pass Details

Date: 24 October 2020
Orbit: 638 x 641 km, 98.2° (Epoch: 28 November)

Event Time Altitude Azimuth Distance (km) Brightness Sun altitude
Rises 17:39:10 0° 140° (SE) 2,937 5.7 -7.9°
Reaches altitude 10° 17:41:31 10° 130° (SE) 2,032 4.8 -8.3°
Maximum altitude 17:45:28 33° 67° (ENE) 1,079 3.3 -8.9°
Drops below altitude 10° 17:49:27 10° 4° (N) 2,045 5.1 -9.6°
Sets 17:51:49 0° 355° (N) 2,959 6.0 -10.0°
